Location: Newark
(34.9500°N, 139.9667°E)
Time: 00:33:14
(UTC+00:00)

Altair - Pass Details

Date: 17 December 2019
Orbit: 1502 x 1682 km, 47.2° (Epoch: 20 January)

Event Time Altitude Azimuth Distance (km) Brightness Sun altitude
Exits shadow 18:43:40 11° 196° (SSW) 3,587 9.3 -35.6°
Drops below altitude 10° 18:44:01 10° 194° (SSW) 3,656 9.4 -35.5°
Sets 18:48:14 0° 178° (S) 4,653 10.1 -34.7°
